Probability
6 26 87 94 97 100 100 100 100 100 100 100 100 100 100 100 100 100 94 94 90 84 87 84 81 81 84 81 71 71 77 77 77 81 77 74 65 65 77 71 68 55 77
6 35 97 100 100 100 100 100 100 100 100 100 100 100 100 100 100 97 94 94 84 84 77 81 81 81 84 77 77 77 77 81 81 81 77 68 61 74 74 74 77 71 74
16 58 87 100 100 100 100 100 100 100 100 100 100 100 100 100 97 94 90 87 87 81 71 77 81 81 87 81 81 71 74 77 74 71 68 58 58 71 77 81 77 81 77
23 55 71 100 100 100 100 100 100 100 100 100 100 97 97 97 97 90 84 84 81 81 74 81 77 84 90 94 87 77 74 68 68 58 52 42 52 71 81 84 77 84 77
29 65 97 100 100 100 100 100 100 100 100 100 100 97 97 97 94 84 84 87 71 71 71 77 77 84 87 71 74 77 81 68 58 52 45 48 77 81 77 77 81 81 84
39 52 94 97 100 100 100 100 100 100 100 100 100 97 100 100 94 81 77 74 74 77 74 81 74 74 84 87 77 74 74 52 39 16 32 48 68 81 81 74 81 81 81
26 48 94 97 97 100 100 100 100 100 100 100 100 100 97 97 97 90 87 74 74 74 77 84 77 81 81 87 81 77 58 39 10 19 35 58 74 90 77 81 81 84 84
26 52 97 97 97 97 100 100 100 100 100 100 100 100 100 100 100 97 90 87 74 74 77 84 87 81 81 84 81 81 58 29 3 6 26 42 77 81 71 81 74 77 77
26 58 94 94 97 97 100 100 100 100 100 100 100 100 100 97 94 97 94 87 84 87 90 87 77 81 81 84 74 71 45 29 10 16 10 45 65 81 71 81 77 71 74
45 61 87 77 90 87 94 100 100 100 100 100 100 97 97 94 90 97 97 97 87 77 77 77 74 74 84 77 81 71 39 23 10 3 16 42 81 74 71 71 77 74 65
74 74 81 71 87 71 74 97 97 100 97 97 97 97 97 94 87 97 90 90 87 77 74 77 84 74 81 74 65 58 32 19 10 10 16 61 84 77 71 74 74 74 68
87 87 84 84 74 55 65 87 97 90 100 97 94 90 94 97 97 81 94 90 84 81 84 81 84 68 71 52 65 52 26 13 16 10 35 84 84 74 77 77 71 77 71
81 90 84 81 77 68 84 84 97 94 100 94 94 94 97 87 84 90 87 90 94 81 68 71 55 39 23 45 45 26 16 13 10 10 45 68 77 77 74 74 68 68 65
77 81 74 84 87 87 84 81 87 87 87 90 100 94 87 74 81 84 90 81 84 90 81 58 71 48 42 39 32 29 19 32 10 26 77 74 74 71 71 61 58 58 65
74 87 68 87 90 97 97 94 71 87 81 90 97 90 74 68 58 71 90 87 58 58 68 84 65 77 58 48 35 32 35 29 32 19 68 74 74 71 71 61 58 58 58
84 84 84 84 87 94 97 97 87 68 94 71 77 84 81 71 61 74 74 84 71 58 55 52 58 77 61 55 55 39 32 26 35 35 48 65 68 77 68 65 48 48 45
87 87 84 84 84 87 94 94 81 74 71 74 84 84 90 74 90 74 61 77 74 68 77 65 61 55 71 55 55 42 35 39 32 35 32 52 58 68 68 61 65 58 52
74 74 81 65 77 84 84 84 71 68 71 90 87 94 94 87 90 97 61 61 71 71 65 68 42 42 52 45 39 48 45 61 42 35 32 45 52 48 55 71 71 68 52
81 77 81 77 74 77 81 77 68 65 84 94 94 84 87 90 87 84 74 74 74 68 55 45 39 45 58 55 42 52 42 52 61 42 35 39 39 48 48 74 61 68 55
84 87 81 81 77 81 81 71 61 65 68 84 84 90 94 97 94 84 77 81 71 61 71 68 74 68 61 61 29 35 45 35 45 45 42 42 42 42 48 48 61 65 65
84 81 81 84 84 81 77 71 65 61 61 68 71 71 81 84 87 90 74 84 74 71 68 42 61 52 52 48 42 42 39 32 35 42 48 45 32 32 42 52 58 55 68
84 84 84 87 87 84 81 71 74 65 58 65 61 74 68 68 90 65 81 81 71 87 81 77 77 61 39 48 52 42 35 42 58 10 42 52 35 29 35 39 48 68 58
81 81 81 87 84 87 87 81 61 74 61 58 68 71 65 68 77 77 77 74 77 71 81 84 87 84 52 52 39 42 32 26 23 23 32 35 55 58 32 39 39 48 52
77 77 81 84 84 90 87 71 68 58 52 52 65 74 68 65 74 81 71 84 81 74 81 74 52 74 65 45 42 45 26 13 13 26 26 26 39 45 42 26 29 42 55
71 74 77 87 87 81 84 81 77 68 65 61 65 71 68 65 68 65 68 71 84 74 68 77 74 77 68 58 45 45 26 29 10 10 32 23 29 29 39 45 35 45 45
74 74 74 90 90 77 81 74 77 68 65 65 71 65 65 61 58 65 52 65 71 74 68 77 81 81 71 71 71 42 42 19 26 32 19 19 32 23 29 42 42 39 42
Height
5900 5900 5900 5901 5901 5901 5901 5902 5902 5902 5902 5903 5903 5904 5904 5904 5905 5905 5905 5906 5906 5906 5907 5907 5907 5907 5907 5908 5908 5908 5908 5908 5909 5909 5909 5909 5909 5909 5909 5909 5909 5908 5909
5901 5901 5901 5902 5902 5902 5902 5902 5902 5903 5903 5903 5903 5904 5904 5905 5905 5906 5906 5906 5907 5907 5907 5907 5908 5908 5908 5908 5909 5909 5909 5909 5909 5909 5909 5909 5909 5910 5910 5910 5909 5909 5910
5902 5902 5902 5902 5903 5903 5903 5903 5903 5903 5903 5904 5904 5904 5905 5905 5905 5906 5906 5907 5907 5907 5908 5908 5908 5908 5908 5909 5909 5909 5909 5910 5910 5910 5910 5910 5910 5910 5910 5910 5910 5910 5910
5903 5903 5903 5903 5903 5903 5904 5904 5904 5904 5904 5904 5905 5905 5905 5905 5906 5906 5907 5907 5907 5908 5908 5908 5908 5909 5909 5909 5910 5910 5910 5910 5910 5910 5911 5911 5911 5911 5911 5911 5911 5912 5911
5903 5903 5903 5904 5904 5904 5904 5905 5905 5905 5905 5905 5905 5905 5906 5906 5906 5906 5907 5907 5908 5908 5908 5908 5909 5909 5909 5910 5910 5910 5911 5911 5911 5911 5911 5911 5911 5911 5912 5912 5912 5912 5912
5904 5904 5904 5904 5904 5904 5905 5905 5905 5905 5905 5905 5906 5906 5906 5906 5906 5907 5907 5907 5908 5908 5909 5909 5909 5909 5910 5910 5910 5911 5911 5911 5911 5911 5911 5912 5912 5912 5912 5913 5913 5913 5913
5904 5904 5904 5904 5904 5905 5905 5905 5905 5906 5906 5906 5906 5906 5906 5906 5907 5907 5907 5908 5908 5908 5909 5909 5909 5910 5910 5910 5911 5911 5912 5912 5912 5912 5912 5912 5913 5913 5913 5913 5913 5913 5914
5904 5904 5904 5904 5904 5905 5905 5905 5906 5906 5906 5906 5906 5906 5907 5907 5907 5907 5907 5908 5908 5908 5909 5909 5909 5910 5910 5911 5911 5911 5912 5912 5912 5913 5913 5913 5913 5913 5914 5914 5914 5914 5914
5904 5904 5904 5904 5904 5904 5905 5905 5905 5906 5906 5906 5906 5907 5907 5907 5907 5907 5908 5908 5908 5909 5909 5909 5910 5910 5911 5911 5911 5912 5912 5913 5913 5913 5913 5913 5913 5914 5914 5914 5914 5914 5914
5904 5904 5904 5903 5903 5904 5904 5905 5905 5905 5906 5906 5906 5906 5907 5907 5907 5908 5908 5908 5908 5909 5909 5909 5910 5910 5911 5911 5912 5912 5912 5913 5913 5913 5913 5913 5913 5914 5914 5914 5914 5914 5914
5904 5903 5903 5903 5903 5903 5903 5904 5904 5905 5905 5905 5906 5906 5906 5907 5907 5908 5908 5908 5909 5909 5909 5910 5910 5911 5911 5912 5912 5912 5913 5913 5913 5913 5913 5913 5914 5914 5914 5914 5914 5914 5914
5904 5903 5903 5902 5902 5902 5902 5903 5903 5904 5904 5905 5905 5906 5906 5906 5907 5907 5908 5909 5909 5909 5910 5910 5910 5911 5911 5912 5912 5912 5913 5913 5913 5913 5913 5913 5914 5914 5914 5914 5913 5913 5913
5904 5903 5902 5901 5901 5901 5901 5902 5902 5903 5903 5904 5905 5905 5906 5906 5907 5907 5908 5909 5909 5909 5910 5910 5910 5911 5911 5911 5912 5912 5912 5913 5913 5913 5913 5913 5913 5913 5913 5913 5913 5913 5913
5904 5903 5902 5901 5900 5900 5900 5901 5901 5902 5902 5903 5904 5905 5905 5906 5906 5907 5908 5908 5909 5909 5910 5910 5910 5911 5911 5911 5912 5912 5912 5913 5913 5913 5913 5913 5913 5913 5913 5913 5913 5913 5913
5905 5903 5902 5901 5900 5900 5899 5900 5900 5901 5901 5902 5903 5904 5905 5905 5906 5907 5907 5908 5908 5909 5910 5910 5910 5911 5911 5911 5912 5912 5912 5912 5912 5913 5913 5913 5913 5913 5913 5912 5912 5912 5912
5904 5903 5901 5900 5899 5899 5898 5898 5899 5900 5900 5901 5902 5903 5904 5904 5905 5906 5907 5907 5908 5909 5909 5910 5910 5910 5911 5911 5911 5912 5912 5912 5912 5912 5912 5912 5912 5912 5912 5912 5912 5911 5911
5903 5901 5900 5898 5898 5898 5897 5897 5898 5898 5899 5900 5901 5902 5903 5904 5904 5905 5906 5907 5907 5908 5909 5909 5910 5910 5911 5911 5911 5911 5912 5912 5912 5912 5912 5912 5912 5911 5911 5911 5911 5911 5910
5902 5901 5899 5898 5898 5897 5896 5896 5896 5897 5898 5899 5900 5901 5902 5903 5903 5904 5905 5906 5907 5908 5908 5909 5909 5910 5910 5911 5911 5911 5911 5911 5911 5911 5911 5911 5911 5910 5910 5910 5910 5910 5909
5902 5900 5899 5898 5897 5896 5895 5895 5895 5896 5896 5897 5898 5899 5900 5902 5902 5903 5904 5905 5906 5907 5907 5908 5909 5909 5910 5910 5910 5910 5910 5910 5910 5910 5910 5910 5909 5909 5909 5909 5909 5909 5908
5901 5899 5898 5896 5895 5895 5894 5893 5894 5894 5895 5896 5897 5898 5899 5900 5901 5902 5903 5904 5905 5906 5906 5907 5907 5908 5909 5909 5909 5909 5909 5909 5909 5909 5909 5908 5908 5908 5908 5908 5907 5907 5907
5900 5898 5897 5896 5894 5894 5893 5893 5893 5893 5893 5894 5895 5896 5897 5898 5899 5900 5901 5902 5903 5904 5905 5905 5906 5906 5907 5907 5908 5908 5908 5907 5908 5908 5907 5907 5907 5907 5906 5906 5905 5905 5905
5900 5898 5896 5895 5894 5894 5893 5892 5892 5892 5892 5893 5893 5894 5895 5896 5897 5898 5899 5900 5901 5902 5903 5903 5904 5904 5905 5905 5906 5906 5906 5906 5906 5906 5906 5905 5905 5905 5904 5904 5903 5903 5902
5898 5897 5896 5894 5893 5893 5892 5891 5891 5891 5891 5891 5892 5892 5893 5894 5895 5896 5897 5898 5899 5900 5900 5901 5902 5902 5903 5903 5904 5904 5904 5904 5904 5904 5903 5903 5903 5902 5902 5901 5901 5900 5899
5897 5896 5895 5893 5892 5892 5891 5891 5890 5890 5890 5890 5890 5890 5891 5892 5892 5893 5894 5895 5896 5897 5898 5899 5899 5900 5900 5901 5901 5902 5902 5902 5902 5901 5901 5900 5900 5900 5899 5899 5898 5897 5897
5896 5894 5893 5893 5892 5891 5890 5890 5889 5889 5888 5889 5889 5889 5889 5890 5890 5891 5892 5893 5894 5895 5896 5896 5897 5897 5897 5898 5898 5899 5899 5899 5899 5899 5898 5898 5897 5897 5896 5895 5895 5894 5893
5895 5893 5892 5891 5890 5890 5889 5889 5888 5887 5887 5887 5887 5887 5887 5887 5888 5889 5890 5891 5891 5892 5893 5893 5893 5894 5894 5895 5895 5895 5896 5896 5896 5895 5895 5894 5894 5893 5893 5892 5891 5890 5889
Wind_Speed
8 7 7 7 7 7 9 10 11 11 11 11 11 11 11 10 9 9 8 8 7 7 6 5 5 5 5 5 5 5 5 5 5 5 4 4 4 5 4 4 4 5 5
7 7 6 6 6 7 8 9 10 11 11 11 11 11 10 10 9 8 8 7 7 6 6 5 4 5 5 5 5 5 5 5 5 5 5 4 4 4 4 4 4 5 5
7 6 6 6 6 7 7 8 9 10 10 10 10 10 9 9 9 8 7 7 6 6 5 5 5 5 5 5 5 5 5 5 5 5 4 3 4 4 4 3 4 4 5
6 6 5 5 6 6 7 7 8 9 9 9 9 9 9 9 8 7 7 6 6 6 5 5 5 5 5 5 5 5 5 5 5 4 4 3 3 3 3 4 4 4 4
5 5 4 4 5 6 7 7 7 8 8 9 9 9 9 8 8 7 7 6 6 5 5 5 5 5 5 5 5 5 5 5 4 4 4 3 3 3 3 3 4 3 3
4 3 3 3 4 5 6 7 7 7 7 8 8 8 8 8 7 6 6 6 6 5 5 5 5 5 5 5 5 5 5 4 4 4 4 4 3 3 3 3 2 2 3
4 3 2 3 4 5 6 6 6 6 7 7 7 8 8 7 6 6 6 6 5 5 5 5 5 5 5 5 5 5 5 4 4 3 3 3 3 3 2 2 2 2 2
4 3 2 2 3 5 5 6 6 6 6 6 6 7 7 7 6 6 6 6 6 5 5 5 5 4 4 5 5 4 5 4 4 3 3 3 3 3 2 2 1 2 2
4 2 1 2 3 4 6 6 5 5 6 6 6 6 6 6 6 6 6 6 6 5 5 5 5 5 5 5 5 5 4 4 3 3 3 2 2 2 2 1 1 2 2
5 3 1 2 3 4 5 5 5 4 5 6 6 6 6 6 6 5 5 5 5 5 5 5 5 5 5 5 5 4 4 4 3 3 2 2 2 2 1 1 1 2 2
6 3 1 1 2 3 3 4 4 5 5 6 6 6 6 6 6 5 5 5 4 4 5 5 5 5 4 4 4 4 4 3 3 3 2 2 2 2 1 1 1 2 2
6 3 1 1 1 2 3 4 5 5 6 6 6 6 6 5 5 5 5 5 5 4 4 4 5 4 4 4 4 4 3 3 3 3 2 2 2 2 1 1 2 2 2
6 4 2 0 1 2 3 4 5 6 6 7 7 6 6 5 5 5 5 5 5 4 4 4 4 4 3 3 3 3 3 3 3 2 2 2 2 2 2 2 2 2 3
7 5 3 2 2 3 3 3 5 6 6 7 7 7 6 6 6 5 5 5 5 5 4 4 4 3 3 3 4 3 2 2 2 2 2 2 1 1 2 2 3 3 3
8 6 5 4 3 3 3 3 4 5 6 7 8 8 7 6 6 6 5 5 5 5 4 4 4 3 3 3 3 3 3 2 2 2 2 2 2 2 2 3 3 3 3
10 8 6 5 4 3 4 4 5 5 6 7 8 8 8 7 7 6 6 5 5 5 4 4 4 3 3 3 3 3 3 3 2 2 2 2 3 3 3 3 3 3 4
11 10 8 6 4 4 4 4 5 6 6 7 7 8 8 8 8 8 7 6 5 5 4 4 4 3 3 3 3 4 3 3 3 3 3 3 4 4 4 4 4 4 5
11 10 9 6 5 5 5 5 5 6 6 6 7 8 8 9 9 9 8 7 6 6 5 5 5 4 4 3 4 4 4 5 4 4 4 5 5 5 5 5 5 5 6
12 10 9 8 7 6 5 6 7 7 8 7 8 8 9 9 9 8 8 8 8 7 6 6 6 6 5 4 4 4 5 5 5 5 5 6 6 7 7 7 7 6 7
12 10 9 8 7 6 5 5 6 6 7 8 8 9 10 10 9 9 9 8 8 8 7 7 8 7 7 6 6 6 6 6 6 7 7 7 7 7 8 8 8 8 8
11 10 10 8 8 6 4 4 5 6 6 7 9 9 10 10 10 10 9 9 9 9 9 9 9 8 8 8 7 7 7 7 8 8 9 9 9 9 9 10 10 10 10
11 10 10 9 8 7 5 4 4 5 5 7 8 9 10 11 11 11 11 10 10 10 10 10 10 10 9 9 9 9 8 9 9 9 10 10 10 11 11 11 11 12 12
12 10 9 8 7 6 6 5 4 5 5 5 7 9 10 11 12 12 11 11 10 10 10 11 11 10 10 10 10 10 9 10 10 11 11 11 11 12 12 12 13 13 14
12 10 9 7 6 6 6 5 5 5 6 6 7 7 10 11 12 12 12 12 11 11 11 11 12 12 12 12 11 11 11 11 12 12 12 12 12 12 13 13 14 14 14
11 10 8 7 7 7 6 6 7 7 6 7 8 8 8 11 12 12 13 13 13 13 12 12 13 13 13 13 13 13 13 13 13 13 13 13 13 14 14 14 15 16 16
11 10 8 7 7 8 8 8 8 8 7 8 8 9 9 10 12 13 14 14 14 14 13 13 13 14 14 15 15 15 15 15 15 15 15 15 16 16 16 16 17 17 17
Wind_Direction
110 113 121 130 135 135 138 137 134 128 124 121 120 119 117 117 116 115 115 114 116 116 116 115 114 114 111 109 106 107 107 108 104 105 110 113 114 121 120 122 119 117 113
106 112 123 133 132 132 134 139 134 128 125 123 122 120 118 116 115 115 117 115 115 117 119 119 119 117 111 108 110 109 110 112 109 106 108 106 109 118 117 118 120 121 118
108 113 121 128 130 133 136 138 135 130 126 124 124 122 121 119 116 114 116 117 118 119 121 119 121 121 117 116 113 112 112 116 113 106 101 99 104 117 117 124 117 118 121
109 114 120 129 133 137 136 135 133 130 126 127 127 124 122 121 120 117 117 119 121 120 123 126 129 125 120 120 119 116 118 122 121 112 104 102 107 114 116 123 122 121 128
110 119 126 140 147 149 147 138 132 129 128 128 127 125 122 120 120 122 122 123 125 127 131 131 130 125 124 122 119 118 121 125 126 119 114 112 113 117 121 130 129 129 134
100 119 134 151 165 162 154 147 141 137 135 133 130 127 125 122 122 126 127 130 135 137 141 138 133 130 130 126 122 124 125 121 120 116 120 122 120 123 127 135 144 142 142
83 102 137 160 174 170 161 155 148 145 143 142 138 134 129 124 124 131 128 128 134 135 134 133 134 135 135 130 124 128 128 122 116 119 129 132 129 135 139 152 170 157 162
64 86 133 173 184 181 171 165 159 153 150 146 143 144 140 132 128 130 130 131 133 129 129 128 127 131 132 133 132 130 130 128 124 127 136 139 143 145 149 152 179 181 175
46 64 127 179 186 183 177 173 171 169 166 157 154 153 150 148 141 136 133 127 125 126 127 129 132 134 131 132 134 134 137 141 140 140 143 146 151 155 160 163 185 200 196
31 40 76 158 178 184 182 184 186 183 176 171 166 163 160 156 150 142 136 130 124 129 131 135 137 140 138 135 137 141 144 149 150 151 157 160 157 166 174 198 224 228 232
28 36 74 158 183 193 198 199 198 193 188 182 176 172 168 163 158 151 146 139 132 130 137 141 141 145 145 143 144 145 143 151 158 163 170 179 185 192 201 245 247 244 243
26 32 44 166 199 214 219 220 214 205 199 193 188 181 175 170 164 158 158 153 145 137 138 144 151 150 153 155 152 150 150 156 163 168 174 187 202 221 241 258 252 252 251
13 12 9 307 241 235 236 229 219 214 208 202 197 187 179 176 173 169 166 163 158 150 147 147 153 156 166 167 167 162 154 158 165 174 178 188 210 227 248 265 272 261 257
10 5 343 305 270 255 238 225 218 215 209 203 199 192 186 181 180 178 175 171 166 158 153 153 156 164 174 181 183 181 175 170 170 181 195 199 213 235 261 276 282 278 271
1 357 339 314 289 274 251 220 219 217 212 201 198 197 194 189 187 185 182 174 168 166 163 167 166 164 173 180 188 190 193 192 189 190 203 218 231 250 264 274 276 277 275
351 346 333 309 290 278 249 228 226 220 211 201 199 200 199 198 196 195 189 183 178 178 181 180 183 179 182 191 199 198 202 209 212 217 231 246 251 262 268 270 279 282 273
346 344 338 324 296 287 260 238 225 221 216 208 205 205 204 203 202 201 198 196 191 192 198 196 195 197 193 201 208 210 218 228 234 241 248 252 258 268 276 278 278 278 272
345 346 341 333 315 295 272 250 237 231 227 221 218 213 209 207 207 207 205 206 205 208 213 210 203 208 208 213 220 226 231 236 245 253 258 261 263 268 277 283 281 279 273
348 343 336 329 315 293 284 254 249 244 234 226 221 217 213 210 211 212 212 213 215 218 222 223 217 220 223 227 235 238 241 243 251 259 265 268 267 266 271 277 282 282 279
341 339 333 327 320 307 299 270 249 243 232 228 224 224 218 217 218 222 221 220 224 228 231 229 225 228 233 238 245 250 254 258 262 265 269 269 269 268 269 275 281 280 279
337 337 336 332 325 322 312 285 258 249 238 234 228 228 223 221 223 227 229 231 231 233 236 233 232 234 238 242 248 254 260 265 268 268 270 270 271 271 272 275 278 279 278
331 329 331 327 324 319 309 300 277 250 241 241 233 229 228 226 226 226 229 234 235 239 241 240 239 241 244 247 251 255 261 264 267 270 272 273 273 273 274 275 277 276 277
323 321 322 320 320 317 312 308 290 262 257 243 240 232 230 229 228 227 230 236 237 240 245 247 246 245 246 249 253 257 262 267 269 271 272 273 274 276 276 277 277 277 277
320 317 321 319 315 311 310 307 299 280 268 259 255 243 236 231 230 232 238 239 240 245 249 250 249 248 250 253 256 260 264 268 269 270 272 276 277 278 278 278 279 277 278
318 314 314 315 309 303 304 305 297 279 265 260 256 253 251 241 236 241 243 243 244 248 251 253 252 252 253 255 257 261 265 269 270 271 272 275 276 277 279 280 278 278 279
314 306 307 307 305 301 295 297 300 284 274 264 256 257 258 251 244 247 247 250 251 253 257 256 253 255 256 257 260 262 265 268 269 271 272 273 275 276 277 278 276 276 277